Location: ???????
(55.4362°N, 38.1183°E)
Time: 07:50:47
(UTC+00:00)

Lacrosse 4 Rocket - Pass Details

Date: 28 October 2021
Orbit: 537 x 619 km, 68.0° (Epoch: 30 November)

Event Time Altitude Azimuth Distance (km) Brightness Sun altitude
Rises 16:07:18 0° 307° (NW) 2,824 5.9 -18.9°
Reaches altitude 10° 16:10:56 10° 275° (W) 1,937 5.3 -19.4°
Maximum altitude 16:12:27 12° 255° (WSW) 1,834 5.0 -19.6°
Drops below altitude 10° 16:13:59 10° 234° (SW) 1,948 4.8 -19.8°
Sets 16:17:41 0° 202° (SSW) 2,861 5.2 -20.3°
